PIMOHWEATHER Station Historical Data
Daily Summary for April 26, 2020 Units:  Metric    English   Both
Daily Weekly Monthly Yearly
  High: Low: Average:
Temperature: 36.0 °C 27.0 °C 31 °C
Dew Point: 28.0 °C 23.0 °C 25.1 °C
Humidity: 83% 59% 72%
Wind Speed: 25km/h 0km/h 7.7km/h
Wind Gust: 32km/h - -
Wind- - South
Pressure: 1011.5 hPa 1007.5 hPa -
Precipitation: 0.00 mm    
 
 
Tabular Data for April 26, 2020
Time Temperature Dew Point Pressure Wind Wind Speed Wind Gust Humidity Rainfall Rate (Hourly) solar
00:04 29.0 °C 24.0 °C 1010.5 hPa ESE 1 km/h 4 km/h 74% 0.00 mm 0.00 W/m2
00:09 29.0 °C 24.0 °C 1010.5 hPa Calm   4 km/h 74% 0.00 mm 0.00 W/m2
00:14 29.0 °C 24.0 °C 1010.5 hPa Calm     74% 0.00 mm 0.00 W/m2
00:19 29.0 °C 24.0 °C 1010.5 hPa Calm     74% 0.00 mm 0.00 W/m2
00:24 29.0 °C 24.0 °C 1010.5 hPa Calm   4 km/h 74% 0.00 mm 0.00 W/m2
00:29 29.0 °C 24.0 °C 1010.5 hPa SSE 1 km/h 4 km/h 74% 0.00 mm 0.00 W/m2
00:34 29.0 °C 24.0 °C 1010.5 hPa North 4 km/h 4 km/h 74% 0.00 mm 0.00 W/m2
00:39 29.0 °C 24.0 °C 1010.5 hPa North 6 km/h 8 km/h 75% 0.00 mm 0.00 W/m2
00:44 29.0 °C 24.0 °C 1010.5 hPa North 4 km/h 4 km/h 75% 0.00 mm 0.00 W/m2
00:49 29.0 °C 24.0 °C 1010.2 hPa North 4 km/h 4 km/h 75% 0.00 mm 0.00 W/m2
00:54 29.0 °C 24.0 °C 1010.2 hPa North 5 km/h 8 km/h 75% 0.00 mm 0.00 W/m2
00:59 29.0 °C 24.0 °C 1010.2 hPa NNE 5 km/h 8 km/h 75% 0.00 mm 0.00 W/m2
01:04 29.0 °C 24.0 °C 1010.2 hPa North 5 km/h 8 km/h 76% 0.00 mm 0.00 W/m2
01:09 29.0 °C 24.0 °C 1010.2 hPa North 3 km/h 4 km/h 76% 0.00 mm 0.00 W/m2
01:14 29.0 °C 24.0 °C 1010.2 hPa NW 5 km/h 8 km/h 76% 0.00 mm 0.00 W/m2
01:19 29.0 °C 24.0 °C 1010.2 hPa Calm     76% 0.00 mm 0.00 W/m2
01:24 29.0 °C 24.0 °C 1010.2 hPa Calm     76% 0.00 mm 0.00 W/m2
01:29 29.0 °C 24.0 °C 1010.2 hPa Calm     76% 0.00 mm 0.00 W/m2
01:34 29.0 °C 24.0 °C 1010.2 hPa Calm     76% 0.00 mm 0.00 W/m2
01:39 29.0 °C 24.0 °C 1010.2 hPa NW 3 km/h 4 km/h 76% 0.00 mm 0.00 W/m2
01:44 29.0 °C 24.0 °C 1010.2 hPa NW 1 km/h 4 km/h 76% 0.00 mm 0.00 W/m2
01:49 29.0 °C 24.0 °C 1010.2 hPa NW 4 km/h 4 km/h 76% 0.00 mm 0.00 W/m2
01:54 29.0 °C 24.0 °C 1009.8 hPa NW 3 km/h 4 km/h 76% 0.00 mm 0.00 W/m2
01:59 29.0 °C 24.0 °C 1009.8 hPa NW 6 km/h 8 km/h 76% 0.00 mm 0.00 W/m2
02:04 29.0 °C 24.0 °C 1009.8 hPa NW 6 km/h 8 km/h 77% 0.00 mm 0.00 W/m2
02:09 29.0 °C 24.0 °C 1009.8 hPa WNW 4 km/h 8 km/h 77% 0.00 mm 0.00 W/m2
02:14 29.0 °C 25.0 °C 1009.8 hPa NW 5 km/h 8 km/h 79% 0.00 mm 0.00 W/m2
02:19 29.0 °C 25.0 °C 1009.8 hPa NW 5 km/h 8 km/h 79% 0.00 mm 0.00 W/m2
02:24 29.0 °C 25.0 °C 1010.2 hPa NNW 5 km/h 8 km/h 79% 0.00 mm 0.00 W/m2
02:29 29.0 °C 25.0 °C 1010.2 hPa NW 5 km/h 8 km/h 79% 0.00 mm 0.00 W/m2
02:34 29.0 °C 25.0 °C 1010.2 hPa NW 8 km/h 8 km/h 79% 0.00 mm 0.00 W/m2
02:39 29.0 °C 25.0 °C 1009.8 hPa NW 9 km/h 12 km/h 80% 0.00 mm 0.00 W/m2
02:44 28.0 °C 25.0 °C 1009.8 hPa NW 11 km/h 12 km/h 80% 0.00 mm 0.00 W/m2
02:49 28.0 °C 25.0 °C 1009.8 hPa NW 10 km/h 12 km/h 80% 0.00 mm 0.00 W/m2
02:54 28.0 °C 25.0 °C 1009.8 hPa NNW 8 km/h 12 km/h 81% 0.00 mm 0.00 W/m2
02:59 28.0 °C 25.0 °C 1009.8 hPa NW 8 km/h 12 km/h 81% 0.00 mm 0.00 W/m2
03:04 28.0 °C 25.0 °C 1009.8 hPa NNW 8 km/h 8 km/h 81% 0.00 mm 0.00 W/m2
03:09 28.0 °C 25.0 °C 1009.8 hPa North 6 km/h 8 km/h 81% 0.00 mm 0.00 W/m2
03:14 28.0 °C 24.0 °C 1009.5 hPa North 4 km/h 4 km/h 81% 0.00 mm 0.00 W/m2
03:19 28.0 °C 24.0 °C 1009.8 hPa North 4 km/h 8 km/h 81% 0.00 mm 0.00 W/m2
03:24 28.0 °C 24.0 °C 1009.8 hPa NNW 5 km/h 8 km/h 81% 0.00 mm 0.00 W/m2
03:29 28.0 °C 24.0 °C 1009.5 hPa North 6 km/h 8 km/h 81% 0.00 mm 0.00 W/m2
03:34 28.0 °C 24.0 °C 1009.5 hPa North 5 km/h 8 km/h 81% 0.00 mm 0.00 W/m2
03:39 28.0 °C 24.0 °C 1009.5 hPa North 1 km/h 4 km/h 80% 0.00 mm 0.00 W/m2
03:44 28.0 °C 24.0 °C 1009.8 hPa North 4 km/h 8 km/h 80% 0.00 mm 0.00 W/m2
03:49 28.0 °C 24.0 °C 1009.8 hPa North 5 km/h 8 km/h 81% 0.00 mm 0.00 W/m2
03:54 28.0 °C 24.0 °C 1009.5 hPa North 5 km/h 8 km/h 80% 0.00 mm 0.00 W/m2
03:59 28.0 °C 24.0 °C 1009.5 hPa North 4 km/h 8 km/h 80% 0.00 mm 0.00 W/m2
04:04 28.0 °C 24.0 °C 1009.5 hPa NW 5 km/h 8 km/h 81% 0.00 mm 0.00 W/m2
04:09 28.0 °C 24.0 °C 1009.8 hPa NW 5 km/h 8 km/h 81% 0.00 mm 0.00 W/m2
04:14 28.0 °C 24.0 °C 1009.8 hPa NW 5 km/h 8 km/h 81% 0.00 mm 0.00 W/m2
04:19 28.0 °C 24.0 °C 1010.2 hPa NW 5 km/h 8 km/h 81% 0.00 mm 0.00 W/m2
04:24 28.0 °C 24.0 °C 1009.8 hPa NW 6 km/h 8 km/h 81% 0.00 mm 0.00 W/m2
04:29 28.0 °C 24.0 °C 1009.8 hPa NNW 5 km/h 8 km/h 81% 0.00 mm 0.00 W/m2
04:34 28.0 °C 24.0 °C 1009.8 hPa North 6 km/h 8 km/h 81% 0.00 mm 0.00 W/m2
04:39 28.0 °C 24.0 °C 1009.8 hPa North 8 km/h 12 km/h 81% 0.00 mm 0.00 W/m2
04:44 28.0 °C 24.0 °C 1009.8 hPa North 7 km/h 8 km/h 81% 0.00 mm 0.00 W/m2
04:49 28.0 °C 24.0 °C 1009.8 hPa North 6 km/h 8 km/h 81% 0.00 mm 0.00 W/m2
04:54 28.0 °C 24.0 °C 1009.8 hPa North 11 km/h 12 km/h 81% 0.00 mm 0.00 W/m2
04:59 28.0 °C 24.0 °C 1009.8 hPa North 8 km/h 12 km/h 82% 0.00 mm 0.00 W/m2
05:04 28.0 °C 24.0 °C 1009.8 hPa North 13 km/h 16 km/h 82% 0.00 mm 0.00 W/m2
05:09 28.0 °C 24.0 °C 1009.8 hPa North 7 km/h 8 km/h 82% 0.00 mm 0.00 W/m2
05:14 28.0 °C 24.0 °C 1009.8 hPa North 8 km/h 12 km/h 82% 0.00 mm 0.00 W/m2
05:19 28.0 °C 24.0 °C 1009.8 hPa North 6 km/h 8 km/h 82% 0.00 mm 0.00 W/m2
05:24 28.0 °C 24.0 °C 1010.2 hPa North 7 km/h 8 km/h 82% 0.00 mm 0.00 W/m2
05:29 28.0 °C 24.0 °C 1010.2 hPa North 5 km/h 8 km/h 82% 0.00 mm 0.00 W/m2
05:34 28.0 °C 24.0 °C 1010.5 hPa North 5 km/h 8 km/h 82% 0.00 mm 1.06 W/m2
05:39 28.0 °C 24.0 °C 1010.5 hPa North 9 km/h 12 km/h 82% 0.00 mm 3.83 W/m2
05:44 28.0 °C 24.0 °C 1010.5 hPa NNW 7 km/h 12 km/h 82% 0.00 mm 6.90 W/m2
05:49 28.0 °C 24.0 °C 1010.2 hPa NNW 9 km/h 12 km/h 82% 0.00 mm 12.02 W/m2
05:54 28.0 °C 24.0 °C 1010.2 hPa North 8 km/h 12 km/h 82% 0.00 mm 19.41 W/m2
05:59 27.0 °C 24.0 °C 1010.5 hPa North 9 km/h 12 km/h 83% 0.00 mm 23.52 W/m2
06:04 27.0 °C 24.0 °C 1010.2 hPa North 6 km/h 8 km/h 83% 0.00 mm 26.79 W/m2
06:09 27.0 °C 24.0 °C 1010.2 hPa NNW 5 km/h 8 km/h 83% 0.00 mm 30.74 W/m2
06:14 28.0 °C 24.0 °C 1010.2 hPa NW 3 km/h 4 km/h 83% 0.00 mm 34.88 W/m2
06:19 28.0 °C 24.0 °C 1010.5 hPa NNE 5 km/h 8 km/h 82% 0.00 mm 38.42 W/m2
06:24 28.0 °C 24.0 °C 1010.5 hPa NNE 6 km/h 8 km/h 82% 0.00 mm 42.07 W/m2
06:29 28.0 °C 24.0 °C 1010.5 hPa NNE 6 km/h 8 km/h 82% 0.00 mm 162.68 W/m2
06:34 28.0 °C 24.0 °C 1010.5 hPa North 5 km/h 8 km/h 81% 0.00 mm 173.59 W/m2
06:39 28.0 °C 25.0 °C 1010.5 hPa North 6 km/h 8 km/h 81% 0.00 mm 189.03 W/m2
06:44 29.0 °C 25.0 °C 1010.5 hPa North 10 km/h 12 km/h 80% 0.00 mm 199.50 W/m2
06:49 29.0 °C 25.0 °C 1010.5 hPa North 8 km/h 8 km/h 79% 0.00 mm 212.91 W/m2
06:54 29.0 °C 25.0 °C 1010.8 hPa North 6 km/h 8 km/h 79% 0.00 mm 222.43 W/m2
06:59 29.0 °C 25.0 °C 1010.8 hPa NNW 9 km/h 16 km/h 78% 0.00 mm 228.13 W/m2
07:04 30.0 °C 25.0 °C 1010.8 hPa East 3 km/h 4 km/h 78% 0.00 mm 240.56 W/m2
07:09 30.0 °C 25.0 °C 1010.5 hPa NNE 6 km/h 8 km/h 76% 0.00 mm 248.85 W/m2
07:14 30.0 °C 25.0 °C 1010.8 hPa North 6 km/h 8 km/h 76% 0.00 mm 258.76 W/m2
07:19 30.0 °C 25.0 °C 1010.8 hPa North 7 km/h 8 km/h 75% 0.00 mm 266.74 W/m2
07:24 30.0 °C 25.0 °C 1010.8 hPa North 5 km/h 8 km/h 74% 0.00 mm 277.14 W/m2
07:29 30.0 °C 25.0 °C 1010.8 hPa NNW 7 km/h 8 km/h 75% 0.00 mm 285.19 W/m2
07:34 30.0 °C 25.0 °C 1011.2 hPa NNW 8 km/h 12 km/h 75% 0.00 mm 292.26 W/m2
07:39 31.0 °C 26.0 °C 1010.8 hPa NW 3 km/h 4 km/h 75% 0.00 mm 304.27 W/m2
07:44 31.0 °C 26.0 °C 1010.8 hPa NW 10 km/h 12 km/h 73% 0.00 mm 314.23 W/m2
07:49 31.0 °C 25.0 °C 1011.2 hPa NW 9 km/h 12 km/h 75% 0.00 mm 311.37 W/m2
07:54 31.0 °C 25.0 °C 1011.2 hPa NW 10 km/h 12 km/h 74% 0.00 mm 327.76 W/m2
07:59 31.0 °C 26.0 °C 1011.2 hPa NNE 5 km/h 8 km/h 73% 0.00 mm 338.43 W/m2
08:04 32.0 °C 26.0 °C 1010.8 hPa WNW 7 km/h 8 km/h 71% 0.00 mm 363.58 W/m2
08:09 32.0 °C 25.0 °C 1011.2 hPa North 10 km/h 12 km/h 72% 0.00 mm 386.75 W/m2
08:14 31.0 °C 25.0 °C 1010.8 hPa North 12 km/h 16 km/h 73% 0.00 mm 382.15 W/m2
08:19 31.0 °C 25.0 °C 1011.2 hPa NE 5 km/h 8 km/h 73% 0.00 mm 270.04 W/m2
08:24 31.0 °C 25.0 °C 1010.8 hPa SE 8 km/h 8 km/h 72% 0.00 mm 422.76 W/m2
08:29 32.0 °C 26.0 °C 1010.8 hPa West 5 km/h 8 km/h 70% 0.00 mm 197.91 W/m2
08:34 32.0 °C 26.0 °C 1010.8 hPa SSE 4 km/h 4 km/h 71% 0.00 mm 392.50 W/m2
08:39 32.0 °C 26.0 °C 1011.2 hPa SE 5 km/h 8 km/h 69% 0.00 mm 453.79 W/m2
08:44 32.0 °C 26.0 °C 1011.2 hPa SSE 8 km/h 12 km/h 71% 0.00 mm 173.05 W/m2
08:49 32.0 °C 26.0 °C 1011.2 hPa SSW 5 km/h 8 km/h 71% 0.00 mm 184.65 W/m2
08:54 32.0 °C 26.0 °C 1011.2 hPa South 5 km/h 8 km/h 71% 0.00 mm 274.44 W/m2
08:59 32.0 °C 26.0 °C 1011.2 hPa SSW 6 km/h 8 km/h 70% 0.00 mm 497.39 W/m2
09:04 32.0 °C 26.0 °C 1011.2 hPa South 8 km/h 12 km/h 69% 0.00 mm 521.12 W/m2
09:09 33.0 °C 26.0 °C 1010.8 hPa WNW 5 km/h 8 km/h 68% 0.00 mm 556.16 W/m2
09:14 33.0 °C 26.0 °C 1010.8 hPa NNE 4 km/h 4 km/h 67% 0.00 mm 497.73 W/m2
09:19 33.0 °C 26.0 °C 1010.8 hPa WNW 12 km/h 16 km/h 67% 0.00 mm 219.83 W/m2
09:24 33.0 °C 26.0 °C 1011.2 hPa South 10 km/h 12 km/h 70% 0.00 mm 198.28 W/m2
09:29 32.0 °C 26.0 °C 1011.2 hPa South 7 km/h 8 km/h 70% 0.00 mm 175.28 W/m2
09:34 32.0 °C 26.0 °C 1011.2 hPa South 10 km/h 16 km/h 72% 0.00 mm 361.25 W/m2
09:39 32.0 °C 26.0 °C 1011.2 hPa SSW 6 km/h 8 km/h 71% 0.00 mm 290.74 W/m2
09:44 32.0 °C 26.0 °C 1010.8 hPa SSW 9 km/h 12 km/h 72% 0.00 mm 156.19 W/m2
09:49 32.0 °C 26.0 °C 1011.2 hPa South 10 km/h 12 km/h 72% 0.00 mm 186.85 W/m2
09:54 31.0 °C 26.0 °C 1011.2 hPa South 10 km/h 12 km/h 73% 0.00 mm 455.62 W/m2
09:59 32.0 °C 26.0 °C 1011.2 hPa South 10 km/h 12 km/h 72% 0.00 mm 519.31 W/m2
10:04 32.0 °C 26.0 °C 1011.2 hPa SSE 16 km/h 20 km/h 72% 0.00 mm 386.33 W/m2
10:09 32.0 °C 26.0 °C 1010.8 hPa South 13 km/h 16 km/h 72% 0.00 mm 563.21 W/m2
10:14 32.0 °C 26.0 °C 1010.8 hPa SSE 12 km/h 16 km/h 71% 0.00 mm 514.42 W/m2
10:19 32.0 °C 26.0 °C 1010.8 hPa South 9 km/h 12 km/h 71% 0.00 mm 196.05 W/m2
10:24 32.0 °C 26.0 °C 1010.8 hPa SSE 8 km/h 8 km/h 71% 0.00 mm 491.52 W/m2
10:29 32.0 °C 26.0 °C 1010.8 hPa South 8 km/h 12 km/h 70% 0.00 mm 409.80 W/m2
10:34 32.0 °C 26.0 °C 1010.8 hPa South 10 km/h 12 km/h 70% 0.00 mm 256.88 W/m2
10:39 32.0 °C 26.0 °C 1010.8 hPa South 12 km/h 16 km/h 71% 0.00 mm 598.61 W/m2
10:44 33.0 °C 26.0 °C 1010.5 hPa South 10 km/h 12 km/h 71% 0.00 mm 549.97 W/m2
10:49 33.0 °C 26.0 °C 1010.5 hPa SSW 15 km/h 20 km/h 70% 0.00 mm 503.12 W/m2
10:54 33.0 °C 26.0 °C 1010.5 hPa SSW 11 km/h 16 km/h 70% 0.00 mm 579.92 W/m2
10:59 33.0 °C 26.0 °C 1010.5 hPa SSW 8 km/h 8 km/h 70% 0.00 mm 631.35 W/m2
11:04 33.0 °C 26.0 °C 1010.5 hPa SSW 11 km/h 12 km/h 70% 0.00 mm 465.09 W/m2
11:09 33.0 °C 26.0 °C 1010.5 hPa South 9 km/h 12 km/h 71% 0.00 mm 511.75 W/m2
11:14 33.0 °C 26.0 °C 1010.5 hPa South 8 km/h 12 km/h 70% 0.00 mm 592.20 W/m2
11:19 33.0 °C 26.0 °C 1010.5 hPa South 5 km/h 8 km/h 70% 0.00 mm 331.06 W/m2
11:24 33.0 °C 27.0 °C 1010.5 hPa SSW 11 km/h 16 km/h 70% 0.00 mm 612.80 W/m2
11:29 33.0 °C 27.0 °C 1010.2 hPa SW 8 km/h 8 km/h 70% 0.00 mm 176.11 W/m2
11:34 33.0 °C 26.0 °C 1010.2 hPa WSW 6 km/h 8 km/h 70% 0.00 mm 206.45 W/m2
11:39 33.0 °C 26.0 °C 1010.2 hPa SW 12 km/h 16 km/h 71% 0.00 mm 582.90 W/m2
11:44 33.0 °C 27.0 °C 1009.8 hPa South 9 km/h 12 km/h 69% 0.00 mm 382.54 W/m2
11:49 34.0 °C 27.0 °C 1009.8 hPa WSW 10 km/h 12 km/h 68% 0.00 mm 591.83 W/m2
11:54 34.0 °C 27.0 °C 1009.8 hPa WNW 7 km/h 12 km/h 68% 0.00 mm 613.73 W/m2
11:59 34.0 °C 27.0 °C 1009.8 hPa SW 11 km/h 12 km/h 68% 0.00 mm 606.22 W/m2
12:04 35.0 °C 27.0 °C 1009.5 hPa South 12 km/h 16 km/h 66% 0.00 mm 600.01 W/m2
12:09 35.0 °C 27.0 °C 1009.5 hPa SSE 11 km/h 16 km/h 68% 0.00 mm 261.11 W/m2
12:14 33.0 °C 27.0 °C 1009.5 hPa SSW 15 km/h 20 km/h 69% 0.00 mm 205.32 W/m2
12:19 33.0 °C 27.0 °C 1009.5 hPa South 14 km/h 16 km/h 71% 0.00 mm 567.44 W/m2
12:24 33.0 °C 27.0 °C 1009.5 hPa South 12 km/h 16 km/h 70% 0.00 mm 605.05 W/m2
12:29 33.0 °C 27.0 °C 1009.5 hPa South 8 km/h 12 km/h 70% 0.00 mm 223.06 W/m2
12:34 33.0 °C 27.0 °C 1009.5 hPa South 8 km/h 12 km/h 70% 0.00 mm 580.16 W/m2
12:39 34.0 °C 27.0 °C 1009.1 hPa South 10 km/h 12 km/h 69% 0.00 mm 603.50 W/m2
12:44 34.0 °C 27.0 °C 1009.1 hPa SW 10 km/h 12 km/h 68% 0.00 mm 599.42 W/m2
12:49 34.0 °C 27.0 °C 1009.1 hPa SSE 10 km/h 16 km/h 68% 0.00 mm 599.30 W/m2
12:54 34.0 °C 27.0 °C 1008.8 hPa South 13 km/h 16 km/h 68% 0.00 mm 641.26 W/m2
12:59 34.0 °C 27.0 °C 1008.8 hPa WSW 12 km/h 16 km/h 69% 0.00 mm 186.78 W/m2
13:04 34.0 °C 27.0 °C 1008.8 hPa WNW 15 km/h 20 km/h 70% 0.00 mm 584.03 W/m2
13:09 35.0 °C 27.0 °C 1008.5 hPa SW 15 km/h 16 km/h 68% 0.00 mm 624.08 W/m2
13:14 34.0 °C 27.0 °C 1008.5 hPa WNW 10 km/h 12 km/h 67% 0.00 mm 639.57 W/m2
13:19 34.0 °C 27.0 °C 1008.5 hPa North 13 km/h 16 km/h 68% 0.00 mm 629.83 W/m2
13:24 34.0 °C 27.0 °C 1008.1 hPa West 19 km/h 24 km/h 70% 0.00 mm 627.07 W/m2
13:29 34.0 °C 27.0 °C 1008.1 hPa WNW 23 km/h 28 km/h 69% 0.00 mm 605.39 W/m2
13:34 35.0 °C 27.0 °C 1008.1 hPa NW 21 km/h 24 km/h 67% 0.00 mm 620.78 W/m2
13:39 35.0 °C 27.0 °C 1007.8 hPa NNW 23 km/h 28 km/h 68% 0.00 mm 616.33 W/m2
13:44 34.0 °C 27.0 °C 1008.1 hPa NW 19 km/h 28 km/h 68% 0.00 mm 621.00 W/m2
13:49 33.0 °C 27.0 °C 1008.1 hPa NW 19 km/h 28 km/h 70% 0.00 mm 596.43 W/m2
13:54 33.0 °C 27.0 °C 1008.1 hPa NW 19 km/h 24 km/h 71% 0.00 mm 560.74 W/m2
13:59 33.0 °C 27.0 °C 1008.5 hPa North 25 km/h 32 km/h 73% 0.00 mm 603.33 W/m2
14:04 33.0 °C 28.0 °C 1008.5 hPa NNE 18 km/h 20 km/h 76% 0.00 mm 593.69 W/m2
14:09 32.0 °C 28.0 °C 1008.1 hPa NNE 15 km/h 20 km/h 81% 0.00 mm 504.49 W/m2
14:14 31.0 °C 28.0 °C 1008.1 hPa North 15 km/h 20 km/h 81% 0.00 mm 552.25 W/m2
14:19 32.0 °C 28.0 °C 1007.8 hPa NW 18 km/h 24 km/h 80% 0.00 mm 560.37 W/m2
14:24 33.0 °C 27.0 °C 1008.1 hPa NNW 17 km/h 24 km/h 76% 0.00 mm 512.12 W/m2
14:29 33.0 °C 27.0 °C 1007.8 hPa NNE 21 km/h 24 km/h 74% 0.00 mm 548.33 W/m2
14:34 33.0 °C 28.0 °C 1007.8 hPa North 18 km/h 20 km/h 73% 0.00 mm 539.57 W/m2
14:39 33.0 °C 27.0 °C 1007.8 hPa NNW 17 km/h 20 km/h 72% 0.00 mm 503.60 W/m2
14:44 33.0 °C 27.0 °C 1007.5 hPa NW 17 km/h 20 km/h 72% 0.00 mm 532.43 W/m2
14:49 34.0 °C 27.0 °C 1007.8 hPa NNW 14 km/h 16 km/h 72% 0.00 mm 530.96 W/m2
14:54 34.0 °C 27.0 °C 1007.8 hPa North 15 km/h 16 km/h 69% 0.00 mm 492.59 W/m2
14:59 34.0 °C 27.0 °C 1007.8 hPa NNW 17 km/h 20 km/h 68% 0.00 mm 490.32 W/m2
15:04 34.0 °C 27.0 °C 1007.8 hPa NNW 18 km/h 20 km/h 67% 0.00 mm 480.83 W/m2
15:09 34.0 °C 27.0 °C 1007.5 hPa NW 15 km/h 20 km/h 65% 0.00 mm 461.57 W/m2
15:14 34.0 °C 27.0 °C 1007.5 hPa North 15 km/h 20 km/h 65% 0.00 mm 453.86 W/m2
15:19 34.0 °C 27.0 °C 1007.5 hPa North 16 km/h 20 km/h 65% 0.00 mm 448.80 W/m2
15:24 35.0 °C 27.0 °C 1007.5 hPa NNW 13 km/h 16 km/h 65% 0.00 mm 450.80 W/m2
15:29 35.0 °C 27.0 °C 1007.5 hPa North 17 km/h 20 km/h 66% 0.00 mm 453.45 W/m2
15:34 36.0 °C 27.0 °C 1007.5 hPa NNW 17 km/h 20 km/h 63% 0.00 mm 461.06 W/m2
15:39 36.0 °C 27.0 °C 1007.5 hPa NE 14 km/h 16 km/h 61% 0.00 mm 462.52 W/m2
15:44 35.0 °C 27.0 °C 1007.5 hPa North 10 km/h 12 km/h 62% 0.00 mm 451.93 W/m2
15:49 36.0 °C 27.0 °C 1007.5 hPa SE 9 km/h 12 km/h 61% 0.00 mm 459.05 W/m2
15:54 36.0 °C 27.0 °C 1007.5 hPa NE 9 km/h 12 km/h 60% 0.00 mm 463.36 W/m2
15:59 35.0 °C 27.0 °C 1007.5 hPa North 6 km/h 8 km/h 61% 0.00 mm 444.22 W/m2
16:04 35.0 °C 27.0 °C 1007.5 hPa ENE 10 km/h 12 km/h 61% 0.00 mm 145.80 W/m2
16:09 35.0 °C 26.0 °C 1007.5 hPa NE 14 km/h 16 km/h 59% 0.00 mm 422.35 W/m2
16:14 35.0 °C 27.0 °C 1007.5 hPa NNE 12 km/h 16 km/h 62% 0.00 mm 409.21 W/m2
16:19 35.0 °C 27.0 °C 1007.5 hPa SSW 17 km/h 20 km/h 65% 0.00 mm 114.58 W/m2
16:24 34.0 °C 27.0 °C 1007.5 hPa South 10 km/h 16 km/h 67% 0.00 mm 131.60 W/m2
16:29 34.0 °C 27.0 °C 1007.5 hPa South 11 km/h 16 km/h 68% 0.00 mm 67.47 W/m2
16:34 34.0 °C 27.0 °C 1007.5 hPa South 10 km/h 12 km/h 68% 0.00 mm 55.00 W/m2
16:39 33.0 °C 27.0 °C 1007.5 hPa WSW 7 km/h 12 km/h 69% 0.00 mm 57.14 W/m2
16:44 33.0 °C 27.0 °C 1007.5 hPa SSW 4 km/h 8 km/h 69% 0.00 mm 68.44 W/m2
16:49 33.0 °C 27.0 °C 1007.5 hPa South 6 km/h 8 km/h 69% 0.00 mm 69.58 W/m2
16:54 33.0 °C 27.0 °C 1007.8 hPa West 6 km/h 8 km/h 69% 0.00 mm 69.08 W/m2
16:59 33.0 °C 27.0 °C 1008.1 hPa South 3 km/h 8 km/h 69% 0.00 mm 136.94 W/m2
17:04 34.0 °C 27.0 °C 1008.1 hPa West 6 km/h 12 km/h 69% 0.00 mm 221.55 W/m2
17:09 34.0 °C 27.0 °C 1007.8 hPa South 4 km/h 4 km/h 68% 0.00 mm 210.66 W/m2
17:14 34.0 °C 27.0 °C 1008.1 hPa SE 8 km/h 12 km/h 69% 0.00 mm 85.04 W/m2
17:19 33.0 °C 27.0 °C 1008.1 hPa SSE 6 km/h 8 km/h 69% 0.00 mm 79.59 W/m2
17:24 33.0 °C 27.0 °C 1008.5 hPa South 4 km/h 4 km/h 70% 0.00 mm 79.22 W/m2
17:29 33.0 °C 27.0 °C 1008.1 hPa NE 11 km/h 12 km/h 70% 0.00 mm 52.17 W/m2
17:34 33.0 °C 26.0 °C 1008.5 hPa NNE 13 km/h 16 km/h 65% 0.00 mm 41.25 W/m2
17:39 33.0 °C 24.0 °C 1008.1 hPa East 5 km/h 8 km/h 60% 0.00 mm 36.43 W/m2
17:44 33.0 °C 24.0 °C 1008.5 hPa NW 5 km/h 8 km/h 60% 0.00 mm 32.69 W/m2
17:49 33.0 °C 24.0 °C 1008.5 hPa SSW 6 km/h 12 km/h 61% 0.00 mm 27.76 W/m2
17:54 33.0 °C 24.0 °C 1008.5 hPa ESE 5 km/h 8 km/h 61% 0.00 mm 22.71 W/m2
17:59 33.0 °C 24.0 °C 1008.5 hPa ESE 8 km/h 12 km/h 61% 0.00 mm 18.03 W/m2
18:04 33.0 °C 24.0 °C 1008.8 hPa East 10 km/h 12 km/h 61% 0.00 mm 12.02 W/m2
18:09 32.0 °C 23.0 °C 1008.8 hPa NE 10 km/h 16 km/h 59% 0.00 mm 7.52 W/m2
18:14 32.0 °C 23.0 °C 1008.8 hPa NE 12 km/h 16 km/h 60% 0.00 mm 3.98 W/m2
18:19 32.0 °C 23.0 °C 1008.8 hPa SE 9 km/h 16 km/h 60% 0.00 mm 0.69 W/m2
18:24 32.0 °C 24.0 °C 1009.1 hPa SE 8 km/h 12 km/h 61% 0.00 mm 0.00 W/m2
18:29 32.0 °C 24.0 °C 1009.1 hPa ESE 11 km/h 16 km/h 62% 0.00 mm 0.00 W/m2
18:34 32.0 °C 24.0 °C 1009.1 hPa NW 10 km/h 12 km/h 63% 0.00 mm 0.00 W/m2
18:39 32.0 °C 24.0 °C 1009.1 hPa East 13 km/h 16 km/h 63% 0.00 mm 0.00 W/m2
18:44 32.0 °C 24.0 °C 1009.1 hPa NE 7 km/h 12 km/h 64% 0.00 mm 0.00 W/m2
18:49 31.0 °C 24.0 °C 1009.1 hPa South 7 km/h 12 km/h 64% 0.00 mm 0.00 W/m2
18:54 31.0 °C 24.0 °C 1009.5 hPa SSE 4 km/h 8 km/h 64% 0.00 mm 0.00 W/m2
18:59 31.0 °C 24.0 °C 1009.5 hPa SE 4 km/h 4 km/h 65% 0.00 mm 0.00 W/m2
19:04 31.0 °C 24.0 °C 1009.5 hPa East 12 km/h 16 km/h 65% 0.00 mm 0.00 W/m2
19:09 31.0 °C 24.0 °C 1009.5 hPa East 12 km/h 16 km/h 65% 0.00 mm 0.00 W/m2
19:14 31.0 °C 24.0 °C 1009.8 hPa ENE 5 km/h 8 km/h 65% 0.00 mm 0.00 W/m2
19:19 31.0 °C 24.0 °C 1009.5 hPa SE 5 km/h 8 km/h 65% 0.00 mm 0.00 W/m2
19:24 31.0 °C 24.0 °C 1009.8 hPa ENE 6 km/h 8 km/h 65% 0.00 mm 0.00 W/m2
19:29 31.0 °C 24.0 °C 1009.8 hPa SSE 9 km/h 16 km/h 66% 0.00 mm 0.00 W/m2
19:34 31.0 °C 24.0 °C 1009.8 hPa East 8 km/h 12 km/h 66% 0.00 mm 0.00 W/m2
19:39 31.0 °C 24.0 °C 1009.8 hPa East 4 km/h 8 km/h 66% 0.00 mm 0.00 W/m2
19:44 31.0 °C 24.0 °C 1009.5 hPa SE 3 km/h 4 km/h 66% 0.00 mm 0.00 W/m2
19:49 31.0 °C 24.0 °C 1009.8 hPa East 6 km/h 8 km/h 67% 0.00 mm 0.00 W/m2
19:54 31.0 °C 24.0 °C 1009.8 hPa SE 5 km/h 8 km/h 67% 0.00 mm 0.00 W/m2
19:59 31.0 °C 24.0 °C 1009.8 hPa NE 5 km/h 8 km/h 67% 0.00 mm 0.00 W/m2
20:04 31.0 °C 24.0 °C 1009.8 hPa ESE 7 km/h 12 km/h 67% 0.00 mm 0.00 W/m2
20:09 30.0 °C 24.0 °C 1009.8 hPa East 9 km/h 12 km/h 67% 0.00 mm 0.00 W/m2
20:14 30.0 °C 24.0 °C 1010.2 hPa ESE 10 km/h 12 km/h 67% 0.00 mm 0.00 W/m2
20:19 30.0 °C 24.0 °C 1010.2 hPa ESE 7 km/h 12 km/h 67% 0.00 mm 0.00 W/m2
20:24 30.0 °C 24.0 °C 1010.2 hPa East 5 km/h 8 km/h 68% 0.00 mm 0.00 W/m2
20:29 30.0 °C 24.0 °C 1010.2 hPa ESE 5 km/h 8 km/h 68% 0.00 mm 0.00 W/m2
20:34 30.0 °C 24.0 °C 1010.2 hPa ENE 7 km/h 8 km/h 68% 0.00 mm 0.00 W/m2
20:39 30.0 °C 24.0 °C 1010.5 hPa SE 6 km/h 8 km/h 68% 0.00 mm 0.00 W/m2
20:44 30.0 °C 24.0 °C 1010.5 hPa ESE 8 km/h 12 km/h 68% 0.00 mm 0.00 W/m2
20:49 30.0 °C 24.0 °C 1010.5 hPa ESE 7 km/h 8 km/h 68% 0.00 mm 0.00 W/m2
20:54 30.0 °C 24.0 °C 1010.5 hPa ESE 5 km/h 8 km/h 68% 0.00 mm 0.00 W/m2
20:59 30.0 °C 24.0 °C 1010.5 hPa Calm   4 km/h 68% 0.00 mm 0.00 W/m2
21:04 30.0 °C 24.0 °C 1010.5 hPa ESE 5 km/h 8 km/h 68% 0.00 mm 0.00 W/m2
21:09 30.0 °C 24.0 °C 1010.8 hPa ESE 6 km/h 8 km/h 68% 0.00 mm 0.00 W/m2
21:14 30.0 °C 24.0 °C 1010.8 hPa ESE 5 km/h 8 km/h 69% 0.00 mm 0.00 W/m2
21:19 30.0 °C 23.0 °C 1010.8 hPa ESE 8 km/h 12 km/h 68% 0.00 mm 0.00 W/m2
21:24 30.0 °C 24.0 °C 1010.8 hPa ESE 7 km/h 8 km/h 69% 0.00 mm 0.00 W/m2
21:29 30.0 °C 24.0 °C 1011.2 hPa East 6 km/h 8 km/h 69% 0.00 mm 0.00 W/m2
21:34 30.0 °C 24.0 °C 1011.2 hPa East 5 km/h 8 km/h 69% 0.00 mm 0.00 W/m2
21:39 30.0 °C 24.0 °C 1010.8 hPa NNE 1 km/h 4 km/h 69% 0.00 mm 0.00 W/m2
21:44 30.0 °C 24.0 °C 1011.2 hPa Calm     69% 0.00 mm 0.00 W/m2
21:49 30.0 °C 24.0 °C 1011.2 hPa Calm   4 km/h 69% 0.00 mm 0.00 W/m2
21:54 30.0 °C 24.0 °C 1011.2 hPa Calm     69% 0.00 mm 0.00 W/m2
21:59 30.0 °C 24.0 °C 1011.2 hPa Calm     70% 0.00 mm 0.00 W/m2
22:04 30.0 °C 23.0 °C 1011.2 hPa Calm   4 km/h 69% 0.00 mm 0.00 W/m2
22:09 30.0 °C 23.0 °C 1011.5 hPa ESE 3 km/h 4 km/h 69% 0.00 mm 0.00 W/m2
22:14 30.0 °C 23.0 °C 1011.5 hPa NNE 5 km/h 8 km/h 69% 0.00 mm 0.00 W/m2
22:19 30.0 °C 23.0 °C 1011.5 hPa NE 6 km/h 8 km/h 69% 0.00 mm 0.00 W/m2
22:24 30.0 °C 23.0 °C 1011.5 hPa NE 1 km/h 4 km/h 69% 0.00 mm 0.00 W/m2
22:29 30.0 °C 23.0 °C 1011.5 hPa Calm     69% 0.00 mm 0.00 W/m2
22:34 30.0 °C 23.0 °C 1011.5 hPa Calm   4 km/h 69% 0.00 mm 0.00 W/m2
22:39 30.0 °C 23.0 °C 1011.5 hPa Calm     69% 0.00 mm 0.00 W/m2
22:44 30.0 °C 23.0 °C 1011.5 hPa Calm   4 km/h 69% 0.00 mm 0.00 W/m2
22:49 30.0 °C 23.0 °C 1011.5 hPa Calm     69% 0.00 mm 0.00 W/m2
22:54 30.0 °C 23.0 °C 1011.5 hPa Calm   4 km/h 69% 0.00 mm 0.00 W/m2
22:59 30.0 °C 23.0 °C 1011.5 hPa Calm     69% 0.00 mm 0.00 W/m2
23:04 30.0 °C 24.0 °C 1011.5 hPa East 1 km/h 4 km/h 70% 0.00 mm 0.00 W/m2
23:09 30.0 °C 24.0 °C 1011.2 hPa NNE 4 km/h 4 km/h 71% 0.00 mm 0.00 W/m2
23:14 29.0 °C 24.0 °C 1011.2 hPa NNW 5 km/h 8 km/h 72% 0.00 mm 0.00 W/m2
23:19 29.0 °C 24.0 °C 1011.2 hPa NNE 4 km/h 4 km/h 73% 0.00 mm 0.00 W/m2
23:24 29.0 °C 24.0 °C 1011.2 hPa North 5 km/h 8 km/h 74% 0.00 mm 0.00 W/m2
23:29 29.0 °C 24.0 °C 1011.2 hPa NNE 6 km/h 8 km/h 74% 0.00 mm 0.00 W/m2
23:34 29.0 °C 24.0 °C 1011.5 hPa NNE 4 km/h 4 km/h 73% 0.00 mm 0.00 W/m2
23:39 29.0 °C 24.0 °C 1011.2 hPa NNE 3 km/h 4 km/h 74% 0.00 mm 0.00 W/m2
23:44 29.0 °C 24.0 °C 1011.2 hPa NNE 5 km/h 8 km/h 74% 0.00 mm 0.00 W/m2
23:49 29.0 °C 24.0 °C 1011.2 hPa NNE 3 km/h 4 km/h 74% 0.00 mm 0.00 W/m2
23:54 29.0 °C 24.0 °C 1010.8 hPa Calm     73% 0.00 mm 0.00 W/m2
23:59 29.0 °C 24.0 °C 1010.8 hPa Calm     74% 0.00 mm 0.00 W/m2
PIMOHWEATHER Philippines
Compliments of Weather Underground - 2 mb